TimeMST,TemperatureF,Dew PointF,Humidity,Sea Level PressureIn,VisibilityMPH,Wind Direction,Wind SpeedMPH,Gust SpeedMPH,PrecipitationIn,Events,Conditions,WindDirDegrees,DateUTC
12:53 AM,16.0,12.0,84,30.21,10.0,Calm,Calm,-,N/A,,Overcast,0,2013-01-22 07:53:00
1:53 AM,15.1,10.9,84,30.22,10.0,Calm,Calm,-,N/A,,Clear,0,2013-01-22 08:53:00
2:53 AM,12.0,9.0,88,30.21,9.0,SW,8.1,-,N/A,,Clear,230,2013-01-22 09:53:00
3:53 AM,12.0,9.0,88,30.19,9.0,WSW,9.2,-,N/A,,Clear,240,2013-01-22 10:53:00
4:53 AM,10.9,8.1,88,30.19,9.0,WSW,9.2,-,N/A,,Clear,250,2013-01-22 11:53:00
5:53 AM,10.0,7.0,87,30.21,9.0,SW,6.9,-,N/A,,Clear,230,2013-01-22 12:53:00
6:53 AM,12.9,8.1,81,30.21,9.0,WSW,13.8,-,N/A,,Clear,240,2013-01-22 13:53:00
7:53 AM,15.1,10.0,80,30.21,8.0,WSW,5.8,-,N/A,,Clear,250,2013-01-22 14:53:00
8:53 AM,19.9,14.0,78,30.23,9.0,WSW,8.1,-,N/A,,Clear,240,2013-01-22 15:53:00
9:53 AM,34.0,21.0,59,30.19,10.0,West,12.7,-,N/A,,Clear,260,2013-01-22 16:53:00
10:53 AM,46.9,17.1,30,30.17,10.0,WNW,13.8,20.7,N/A,,Clear,290,2013-01-22 17:53:00
11:53 AM,48.0,16.0,28,30.15,10.0,WNW,16.1,-,N/A,,Clear,300,2013-01-22 18:53:00
12:53 PM,50.0,16.0,26,30.12,10.0,WNW,15.0,23.0,N/A,,Clear,300,2013-01-22 19:53:00
1:53 PM,50.0,12.0,22,30.12,10.0,WNW,16.1,24.2,N/A,,Clear,300,2013-01-22 20:53:00
2:53 PM,51.1,15.1,24,30.13,10.0,NW,12.7,-,N/A,,Clear,310,2013-01-22 21:53:00
3:53 PM,48.0,18.0,30,30.16,10.0,WNW,5.8,-,N/A,,Clear,300,2013-01-22 22:53:00
4:53 PM,37.9,19.9,48,30.18,10.0,West,4.6,-,N/A,,Clear,280,2013-01-22 23:53:00
5:53 PM,32.0,21.0,64,30.23,10.0,WSW,5.8,-,N/A,,Clear,250,2013-01-23 00:53:00
6:53 PM,30.0,19.9,66,30.22,10.0,WSW,8.1,-,N/A,,Clear,250,2013-01-23 01:53:00
7:53 PM,28.0,19.0,69,30.22,10.0,WSW,8.1,-,N/A,,Clear,240,2013-01-23 02:53:00
8:53 PM,28.9,17.1,61,30.22,10.0,SW,4.6,-,N/A,,Clear,230,2013-01-23 03:53:00
9:53 PM,25.0,16.0,69,30.19,9.0,WSW,5.8,-,N/A,,Clear,250,2013-01-23 04:53:00
10:53 PM,21.9,16.0,78,30.18,10.0,WSW,8.1,-,N/A,,Clear,240,2013-01-23 05:53:00
11:53 PM,23.0,15.1,72,30.17,10.0,WSW,3.5,-,N/A,,Clear,240,2013-01-23 06:53:00